08-02-2022, 00:00:09,    281,    1.8,    8.1,   0.00,   0.00, 1021.5,   81.6, -999.0
08-02-2022, 00:00:19,    254,    1.4,    8.0,   0.00,   0.00, 1021.5,   81.5, -999.0
08-02-2022, 00:00:29,    201,    0.9,    8.0,   0.00,   0.00, 1021.5,   81.5, -999.0
08-02-2022, 00:00:39,    252,    0.5,    8.0,   0.00,   0.00, 1021.5,   81.4, -999.0
08-02-2022, 00:00:49,    249,    1.5,    8.0,   0.00,   0.00, 1021.5,   81.4, -999.0
08-02-2022, 00:00:59,    243,    0.4,    7.9,   0.00,   0.00, 1021.5,   81.3, -999.0
08-02-2022, 00:01:09,    228,    0.8,    8.0,   0.00,   0.00, 1021.5,   81.4, -999.0
08-02-2022, 00:01:18,    213,    2.4,    8.1,   0.00,   0.00, 1021.5,   81.5, -999.0
08-02-2022, 00:01:29,    253,    2.2,    8.0,   0.00,   0.00, 1021.5,   81.4, -999.0
08-02-2022, 00:01:38,    254,    2.9,    8.0,   0.00,   0.00, 1021.5,   81.4, -999.0
08-02-2022, 00:01:48,    204,    2.9,    8.1,   0.00,   0.00, 1021.5,   81.4, -999.0
08-02-2022, 00:01:58,    204,    1.2,    8.0,   0.00,   0.00, 1021.5,   81.4, -999.0
08-02-2022, 00:02:08,    265,    1.1,    8.0,   0.00,   0.00, 1021.5,   81.4, -999.0
08-02-2022, 00:02:18,    254,    2.1,    8.0,   0.00,   0.00, 1021.6,   81.4, -999.0
08-02-2022, 00:02:28,    247,    3.3,    8.0,   0.00,   0.00, 1021.5,   81.4, -999.0
08-02-2022, 00:02:38,    238,    2.4,    8.1,   0.00,   0.00, 1021.5,   81.3, -999.0
08-02-2022, 00:02:48,    216,    1.6,    8.0,   0.00,   0.00, 1021.5,   81.3, -999.0
08-02-2022, 00:02:58,    244,    3.3,    8.0,   0.00,   0.00, 1021.5,   81.4, -999.0
08-02-2022, 00:03:08,    232,    4.3,    8.1,   0.00,   0.00, 1021.5,   81.2, -999.0
08-02-2022, 00:03:18,    217,    1.8,    8.0,   0.00,   0.00, 1021.5,   81.3, -999.0
08-02-2022, 00:03:28,    236,    1.2,    8.0,   0.00,   0.00, 1021.5,   81.2, -999.0
08-02-2022, 00:03:38,    268,    2.3,    8.0,   0.00,   0.00, 1021.5,   81.2, -999.0
08-02-2022, 00:03:48,    231,    0.6,    8.0,   0.00,   0.00, 1021.5,   81.4, -999.0
08-02-2022, 00:03:58,    237,    0.4,    8.0,   0.00,   0.00, 1021.5,   81.2, -999.0
08-02-2022, 00:04:08,    234,    1.1,    8.1,   0.00,   0.00, 1021.5,   81.2, -999.0
08-02-2022, 00:04:18,    206,    0.2,    8.0,   0.00,   0.00, 1021.5,   81.2, -999.0
08-02-2022, 00:04:27,    207,    0.0,    7.9,   0.00,   0.00, 1021.3,   80.8, -999.0
08-02-2022, 00:04:38,    206,    0.0,    8.0,   0.00,   0.00, 1021.4,   80.9, -999.0
08-02-2022, 00:04:48,    207,    0.0,    8.0,   0.00,   0.00, 1021.3,   80.8, -999.0
08-02-2022, 00:04:57,    216,    1.0,    8.0,   0.00,   0.00, 1021.5,   81.1, -999.0
08-02-2022, 00:05:08,    239,    2.6,    8.1,   0.00,   0.00, 1021.5,   81.1, -999.0
08-02-2022, 00:05:17,    218,    3.1,    7.9,   0.00,   0.00, 1021.5,   81.1, -999.0
08-02-2022, 00:05:27,    239,    3.0,    8.0,   0.00,   0.00, 1021.5,   81.2, -999.0
08-02-2022, 00:05:37,    223,    1.4,    8.0,   0.00,   0.00, 1021.5,   81.1, -999.0
08-02-2022, 00:05:47,    237,    2.8,    8.0,   0.00,   0.00, 1021.5,   81.2, -999.0
08-02-2022, 00:05:57,    244,    3.1,    8.1,   0.00,   0.00, 1021.5,   81.1, -999.0
08-02-2022, 00:06:07,    242,    3.2,    7.9,   0.00,   0.00, 1021.6,   81.2, -999.0
08-02-2022, 00:06:17,    188,    1.0,    8.0,   0.00,   0.00, 1021.5,   81.1, -999.0
08-02-2022, 00:06:27,    222,    1.2,    8.0,   0.00,   0.00, 1021.5,   81.2, -999.0
08-02-2022, 00:06:37,    224,    0.7,    8.0,   0.00,   0.00, 1021.5,   81.1, -999.0
08-02-2022, 00:06:47,    253,    0.8,    8.0,   0.00,   0.00, 1021.5,   81.2, -999.0
08-02-2022, 00:06:57,    192,    0.4,    8.0,   0.00,   0.00, 1021.5,   81.0, -999.0
08-02-2022, 00:07:07,    197,    0.0,    8.0,   0.00,   0.00, 1021.4,   80.8, -999.0
08-02-2022, 00:07:17,    208,    1.2,    8.0,   0.00,   0.00, 1021.5,   81.2, -999.0
08-02-2022, 00:07:27,    211,    1.2,    8.1,   0.00,   0.00, 1021.5,   81.0, -999.0
08-02-2022, 00:07:37,    227,    0.8,    8.0,   0.00,   0.00, 1021.5,   81.1, -999.0
08-02-2022, 00:07:47,    197,    0.4,    8.0,   0.00,   0.00, 1021.4,   80.9, -999.0
08-02-2022, 00:07:57,    229,    0.7,    8.0,   0.00,   0.00, 1021.5,   81.1, -999.0
08-02-2022, 00:08:06,    245,    2.8,    8.1,   0.00,   0.00, 1021.5,   81.0, -999.0
08-02-2022, 00:08:17,    247,    3.6,    8.1,   0.00,   0.00, 1021.5,   81.2, -999.0
08-02-2022, 00:08:26,    247,    1.7,    8.0,   0.00,   0.00, 1021.5,   81.0, -999.0
08-02-2022, 00:08:36,    191,    2.0,    8.0,   0.00,   0.00, 1021.5,   81.0, -999.0
08-02-2022, 00:08:46,    200,    0.5,    8.1,   0.00,   0.00, 1021.5,   81.0, -999.0
08-02-2022, 00:08:56,    199,    0.5,    8.1,   0.00,   0.00, 1021.5,   80.9, -999.0
08-02-2022, 00:09:06,    224,    0.8,    8.0,   0.00,   0.00, 1021.4,   80.9, -999.0
08-02-2022, 00:09:16,    214,    3.5,    8.1,   0.00,   0.00, 1021.5,   81.0, -999.0
08-02-2022, 00:09:26,    198,    2.4,    8.0,   0.00,   0.00, 1021.5,   80.9, -999.0
08-02-2022, 00:09:36,    255,    2.7,    8.1,   0.00,   0.00, 1021.5,   80.8, -999.0
08-02-2022, 00:09:46,    234,    2.2,    8.1,   0.00,   0.00, 1021.4,   80.8, -999.0
08-02-2022, 00:09:56,    181,    1.2,    8.1,   0.00,   0.00, 1021.4,   80.8, -999.0
08-02-2022, 00:10:06,    196,    0.4,    8.1,   0.00,   0.00, 1021.4,   80.7, -999.0
08-02-2022, 00:10:16,    229,    0.7,    8.1,   0.00,   0.00, 1021.4,   80.8, -999.0
08-02-2022, 00:10:26,    243,    1.3,    8.1,   0.00,   0.00, 1021.4,   80.8, -999.0
08-02-2022, 00:10:36,    230,    1.6,    8.1,   0.00,   0.00, 1021.4,   80.7, -999.0
08-02-2022, 00:10:46,    181,    0.4,    8.1,   0.00,   0.00, 1021.4,   80.6, -999.0
08-02-2022, 00:10:56,    202,    0.5,    8.1,   0.00,   0.00, 1021.4,   80.7, -999.0
08-02-2022, 00:11:06,    229,    1.2,    8.1,   0.00,   0.00, 1021.4,   80.7, -999.0
08-02-2022, 00:11:15,    221,    0.7,    8.0,   0.00,   0.00, 1021.4,   80.6, -999.0
08-02-2022, 00:11:26,    275,    1.1,    8.0,   0.00,   0.00, 1021.4,   80.6, -999.0
08-02-2022, 00:11:36,    250,    1.4,    8.1,   0.00,   0.00, 1021.4,   80.6, -999.0
08-02-2022, 00:11:45,    244,    0.1,    8.0,   0.00,   0.00, 1021.3,   80.3, -999.0
08-02-2022, 00:11:55,    345,    0.5,    8.0,   0.00,   0.00, 1021.4,   80.4, -999.0
08-02-2022, 00:12:05,    235,    0.2,    8.0,   0.00,   0.00, 1021.4,   80.4, -999.0
08-02-2022, 00:12:15,    243,    3.2,    8.1,   0.00,   0.00, 1021.4,   80.5, -999.0
08-02-2022, 00:12:25,    247,    2.9,    8.1,   0.00,   0.00, 1021.4,   80.5, -999.0
08-02-2022, 00:12:35,    197,    2.6,    8.1,   0.00,   0.00, 1021.4,   80.5, -999.0
08-02-2022, 00:12:45,    231,    2.0,    8.1,   0.00,   0.00, 1021.4,   80.4, -999.0
08-02-2022, 00:12:55,    217,    1.2,    8.1,   0.00,   0.00, 1021.4,   80.4, -999.0
08-02-2022, 00:13:05,    217,    0.0,    8.0,   0.00,   0.00, 1021.3,   80.0, -999.0
08-02-2022, 00:13:15,    251,    0.6,    8.0,   0.00,   0.00, 1021.4,   80.3, -999.0
08-02-2022, 00:13:25,    253,    2.9,    8.0,   0.00,   0.00, 1021.4,   80.3, -999.0
08-02-2022, 00:13:35,    200,    1.5,    8.1,   0.00,   0.00, 1021.4,   80.4, -999.0
08-02-2022, 00:13:45,    212,    1.7,    8.0,   0.00,   0.00, 1021.4,   80.3, -999.0
08-02-2022, 00:13:55,    290,    2.2,    8.1,   0.00,   0.00, 1021.4,   80.3, -999.0
08-02-2022, 00:14:05,    255,    1.0,    8.1,   0.00,   0.00, 1021.4,   80.3, -999.0
08-02-2022, 00:14:15,    239,    0.4,    8.0,   0.00,   0.00, 1021.3,   80.0, -999.0
08-02-2022, 00:14:24,    267,    1.8,    8.0,   0.00,   0.00, 1021.5,   80.3, -999.0
08-02-2022, 00:14:35,    258,    3.7,    8.1,   0.00,   0.00, 1021.4,   80.3, -999.0
08-02-2022, 00:14:45,    237,    3.8,    8.1,   0.00,   0.00, 1021.4,   80.2, -999.0
08-02-2022, 00:14:54,    244,    4.4,    8.1,   0.00,   0.00, 1021.4,   80.2, -999.0
08-02-2022, 00:15:05,    256,    3.8,    8.1,   0.00,   0.00, 1021.4,   80.2, -999.0
08-02-2022, 00:15:14,    245,    2.2,    8.1,   0.00,   0.00, 1021.4,   80.2, -999.0
08-02-2022, 00:15:24,    220,    2.4,    8.1,   0.00,   0.00, 1021.4,   80.2, -999.0
08-02-2022, 00:15:34,    243,    1.9,    8.1,   0.00,   0.00, 1021.4,   80.2, -999.0
08-02-2022, 00:15:44,    191,    0.7,    8.0,   0.00,   0.00, 1021.4,   80.0, -999.0
08-02-2022, 00:15:54,    198,    1.7,    8.0,   0.00,   0.00, 1021.4,   80.1, -999.0
08-02-2022, 00:16:04,    308,    2.6,    8.0,   0.00,   0.00, 1021.4,   80.0, -999.0
08-02-2022, 00:16:14,    238,    1.2,    8.1,   0.00,   0.00, 1021.4,   80.0, -999.0
08-02-2022, 00:16:24,    226,    2.7,    8.1,   0.00,   0.00, 1021.4,   80.0, -999.0
08-02-2022, 00:16:34,    281,    2.2,    8.1,   0.00,   0.00, 1021.4,   79.9, -999.0
08-02-2022, 00:16:44,    234,    2.0,    8.1,   0.00,   0.00, 1021.4,   79.9, -999.0
08-02-2022, 00:16:54,    233,    0.9,    8.1,   0.00,   0.00, 1021.4,   79.9, -999.0
08-02-2022, 00:17:04,    234,    0.8,    8.1,   0.00,   0.00, 1021.5,   79.9, -999.0
08-02-2022, 00:17:14,    234,    0.1,    8.1,   0.00,   0.00, 1021.4,   79.6, -999.0
08-02-2022, 00:17:24,    251,    1.2,    8.0,   0.00,   0.00, 1021.4,   79.8, -999.0
08-02-2022, 00:17:34,    243,    1.6,    8.0,   0.00,   0.00, 1021.5,   79.9, -999.0
08-02-2022, 00:17:44,    258,    1.0,    8.1,   0.00,   0.00, 1021.5,   79.9, -999.0
08-02-2022, 00:17:54,    229,    0.8,    8.1,   0.00,   0.00, 1021.4,   79.9, -999.0
08-02-2022, 00:18:03,    226,    0.6,    8.1,   0.00,   0.00, 1021.4,   79.8, -999.0
08-02-2022, 00:18:14,    229,    1.5,    8.1,   0.00,   0.00, 1021.5,   79.9, -999.0
08-02-2022, 00:18:23,    232,    3.1,    8.1,   0.00,   0.00, 1021.5,   79.9, -999.0
08-02-2022, 00:18:33,    206,    1.5,    8.0,   0.00,   0.00, 1021.5,   79.9, -999.0
08-02-2022, 00:18:43,    248,    2.4,    8.0,   0.00,   0.00, 1021.4,   79.9, -999.0
08-02-2022, 00:18:53,    251,    0.7,    8.1,   0.00,   0.00, 1021.4,   79.7, -999.0
08-02-2022, 00:19:03,    228,    2.1,    8.0,   0.00,   0.00, 1021.5,   79.8, -999.0
08-02-2022, 00:19:13,    239,    1.1,    8.1,   0.00,   0.00, 1021.5,   79.7, -999.0
08-02-2022, 00:19:23,    197,    1.0,    8.1,   0.00,   0.00, 1021.5,   79.8, -999.0
08-02-2022, 00:19:33,    239,    1.2,    8.0,   0.00,   0.00, 1021.5,   79.8, -999.0
08-02-2022, 00:19:43,    244,    1.6,    8.1,   0.00,   0.00, 1021.5,   79.8, -999.0
08-02-2022, 00:19:53,    259,    1.3,    8.1,   0.00,   0.00, 1021.5,   79.8, -999.0
08-02-2022, 00:20:03,    252,    2.0,    8.1,   0.00,   0.00, 1021.5,   79.8, -999.0
08-02-2022, 00:20:13,    196,    1.6,    8.1,   0.00,   0.00, 1021.5,   79.8, -999.0
08-02-2022, 00:20:23,    251,    1.2,    8.1,   0.00,   0.00, 1021.5,   79.7, -999.0
08-02-2022, 00:20:33,    237,    3.4,    8.0,   0.00,   0.00, 1021.5,   79.7, -999.0
08-02-2022, 00:20:43,    236,    1.5,    8.1,   0.00,   0.00, 1021.5,   79.7, -999.0
08-02-2022, 00:20:53,    255,    2.3,    7.9,   0.00,   0.00, 1021.5,   79.7, -999.0
08-02-2022, 00:21:03,    188,    2.1,    8.0,   0.00,   0.00, 1021.5,   79.7, -999.0
08-02-2022, 00:21:13,    251,    1.0,    8.1,   0.00,   0.00, 1021.4,   79.6, -999.0
08-02-2022, 00:21:23,    247,    3.0,    8.1,   0.00,   0.00, 1021.5,   79.8, -999.0
08-02-2022, 00:21:32,    243,    2.4,    8.1,   0.00,   0.00, 1021.5,   79.7, -999.0
08-02-2022, 00:21:42,    253,    3.3,    8.2,   0.00,   0.00, 1021.5,   79.7, -999.0
08-02-2022, 00:21:53,    250,    1.7,    8.2,   0.00,   0.00, 1021.5,   79.7, -999.0
08-02-2022, 00:22:02,    249,    0.6,    8.1,   0.00,   0.00, 1021.4,   79.6, -999.0
08-02-2022, 00:22:12,    249,    0.0,    8.0,   0.00,   0.00, 1021.3,   79.3, -999.0
08-02-2022, 00:22:22,    263,    0.0,    8.0,   0.00,   0.00, 1021.3,   79.2, -999.0
08-02-2022, 00:22:32,    183,    1.5,    8.1,   0.00,   0.00, 1021.4,   79.6, -999.0
08-02-2022, 00:22:42,    219,    0.7,    8.1,   0.00,   0.00, 1021.3,   79.6, -999.0
08-02-2022, 00:22:52,    288,    1.9,    8.1,   0.00,   0.00, 1021.4,   79.5, -999.0
08-02-2022, 00:23:02,    168,    2.2,    8.1,   0.00,   0.00, 1021.5,   79.4, -999.0
08-02-2022, 00:23:12,    269,    2.2,    8.1,   0.00,   0.00, 1021.5,   79.4, -999.0
08-02-2022, 00:23:22,    228,    2.7,    8.1,   0.00,   0.00, 1021.5,   79.4, -999.0
08-02-2022, 00:23:32,    249,    3.4,    8.1,   0.00,   0.00, 1021.5,   79.4, -999.0
08-02-2022, 00:23:42,    206,    1.8,    8.1,   0.00,   0.00, 1021.4,   79.4, -999.0
08-02-2022, 00:23:52,    250,    2.6,    8.1,   0.00,   0.00, 1021.5,   79.4, -999.0
08-02-2022, 00:24:02,    253,    2.5,    8.1,   0.00,   0.00, 1021.4,   79.3, -999.0
08-02-2022, 00:24:12,    237,    1.4,    8.0,   0.00,   0.00, 1021.5,   79.3, -999.0
08-02-2022, 00:24:22,    227,    1.9,    8.1,   0.00,   0.00, 1021.4,   79.3, -999.0
08-02-2022, 00:24:32,    227,    0.5,    8.1,   0.00,   0.00, 1021.4,   79.3, -999.0
08-02-2022, 00:24:42,    232,    0.8,    8.1,   0.00,   0.00, 1021.4,   79.4, -999.0
08-02-2022, 00:24:51,    225,    0.5,    8.1,   0.00,   0.00, 1021.4,   79.1, -999.0
08-02-2022, 00:25:02,    226,    0.3,    8.1,   0.00,   0.00, 1021.4,   79.1, -999.0
08-02-2022, 00:25:11,    224,    1.8,    8.0,   0.00,   0.00, 1021.5,   79.2, -999.0
08-02-2022, 00:25:21,    210,    3.5,    8.0,   0.00,   0.00, 1021.5,   79.3, -999.0
08-02-2022, 00:25:31,    227,    2.2,    8.1,   0.00,   0.00, 1021.5,   79.3, -999.0
08-02-2022, 00:25:41,    273,    3.7,    8.0,   0.00,   0.00, 1021.4,   79.2, -999.0
08-02-2022, 00:25:51,    205,    3.6,    8.1,   0.00,   0.00, 1021.4,   79.2, -999.0
08-02-2022, 00:26:01,    205,    0.4,    8.0,   0.00,   0.00, 1021.4,   79.2, -999.0
08-02-2022, 00:26:11,    212,    1.1,    8.0,   0.00,   0.00, 1021.4,   79.1, -999.0
08-02-2022, 00:26:21,    203,    1.5,    8.1,   0.00,   0.00, 1021.4,   79.2, -999.0
08-02-2022, 00:26:31,    245,    1.1,    8.2,   0.00,   0.00, 1021.5,   79.3, -999.0
08-02-2022, 00:26:41,    231,    0.7,    8.1,   0.00,   0.00, 1021.4,   79.1, -999.0
08-02-2022, 00:26:51,    231,    0.0,    8.0,   0.00,   0.00, 1021.3,   78.7, -999.0
08-02-2022, 00:27:01,    236,    0.3,    8.0,   0.00,   0.00, 1021.3,   79.0, -999.0
08-02-2022, 00:27:11,    241,    0.0,    8.0,   0.00,   0.00, 1021.3,   78.8, -999.0
08-02-2022, 00:27:21,    260,    1.1,    8.1,   0.00,   0.00, 1021.4,   79.2, -999.0
08-02-2022, 00:27:31,    260,    3.1,    8.1,   0.00,   0.00, 1021.4,   79.1, -999.0
08-02-2022, 00:27:41,    218,    1.4,    8.1,   0.00,   0.00, 1021.4,   79.0, -999.0
08-02-2022, 00:27:51,    222,    0.8,    8.1,   0.00,   0.00, 1021.4,   79.1, -999.0
08-02-2022, 00:28:01,    236,    0.6,    8.1,   0.00,   0.00, 1021.4,   79.2, -999.0
08-02-2022, 00:28:11,    248,    1.9,    8.0,   0.00,   0.00, 1021.5,   79.1, -999.0
08-02-2022, 00:28:20,    239,    1.3,    8.1,   0.00,   0.00, 1021.5,   79.1, -999.0
08-02-2022, 00:28:30,    252,    0.9,    8.2,   0.00,   0.00, 1021.5,   79.2, -999.0
08-02-2022, 00:28:41,    282,    0.7,    8.1,   0.00,   0.00, 1021.5,   79.0, -999.0
08-02-2022, 00:28:50,    214,    2.1,    8.1,   0.00,   0.00, 1021.5,   79.2, -999.0
08-02-2022, 00:29:00,    238,    1.6,    8.1,   0.00,   0.00, 1021.5,   79.1, -999.0
08-02-2022, 00:29:10,    277,    1.0,    8.1,   0.00,   0.00, 1021.5,   79.1, -999.0
08-02-2022, 00:29:20,    195,    1.6,    8.1,   0.00,   0.00, 1021.5,   79.0, -999.0
08-02-2022, 00:29:30,    198,    1.5,    8.1,   0.00,   0.00, 1021.5,   78.9, -999.0
08-02-2022, 00:29:40,    231,    3.2,    8.1,   0.00,   0.00, 1021.5,   78.9, -999.0
08-02-2022, 00:29:50,    243,    1.6,    8.1,   0.00,   0.00, 1021.5,   79.0, -999.0
08-02-2022, 00:30:00,    235,    2.4,    8.1,   0.00,   0.00, 1021.5,   78.9, -999.0
08-02-2022, 00:30:10,    244,    1.5,    8.1,   0.00,   0.00, 1021.5,   78.9, -999.0
08-02-2022, 00:30:20,    195,    2.2,    7.9,   0.00,   0.00, 1021.5,   78.9, -999.0
08-02-2022, 00:30:30,    290,    2.4,    8.0,   0.00,   0.00, 1021.4,   78.9, -999.0
08-02-2022, 00:30:40,    289,    3.8,    8.0,   0.00,   0.00, 1021.4,   78.9, -999.0
08-02-2022, 00:30:50,    188,    1.3,    8.0,   0.00,   0.00, 1021.4,   78.9, -999.0
08-02-2022, 00:31:00,    226,    0.9,    8.0,   0.00,   0.00, 1021.4,   78.9, -999.0
08-02-2022, 00:31:10,    228,    0.6,    8.1,   0.00,   0.00, 1021.4,   78.8, -999.0
08-02-2022, 00:31:20,    228,    0.6,    8.2,   0.00,   0.00, 1021.4,   78.9, -999.0
08-02-2022, 00:31:29,    188,    1.4,    8.1,   0.00,   0.00, 1021.4,   78.8, -999.0
08-02-2022, 00:31:39,    239,    1.7,    8.1,   0.00,   0.00, 1021.4,   78.9, -999.0
08-02-2022, 00:31:50,    230,    4.7,    8.1,   0.00,   0.00, 1021.4,   78.8, -999.0
08-02-2022, 00:31:59,    239,    3.9,    8.2,   0.00,   0.00, 1021.4,   78.9, -999.0
08-02-2022, 00:32:09,    256,    3.1,    8.1,   0.00,   0.00, 1021.4,   78.9, -999.0
08-02-2022, 00:32:20,    198,    2.2,    8.1,   0.00,   0.00, 1021.4,   78.7, -999.0
08-02-2022, 00:32:29,    255,    3.3,    8.1,   0.00,   0.00, 1021.4,   78.8, -999.0
08-02-2022, 00:32:39,    223,    2.7,    8.2,   0.00,   0.00, 1021.4,   78.7, -999.0
08-02-2022, 00:32:49,    207,    2.5,    8.0,   0.00,   0.00, 1021.3,   78.7, -999.0
08-02-2022, 00:32:59,    236,    2.1,    8.0,   0.00,   0.00, 1021.4,   78.7, -999.0
08-02-2022, 00:33:09,    251,    2.8,    8.1,   0.00,   0.00, 1021.4,   78.6, -999.0
08-02-2022, 00:33:19,    202,    1.6,    8.1,   0.00,   0.00, 1021.4,   78.7, -999.0
08-02-2022, 00:33:29,    278,    1.4,    8.2,   0.00,   0.00, 1021.4,   78.7, -999.0
08-02-2022, 00:33:39,    187,    3.3,    8.1,   0.00,   0.00, 1021.4,   78.7, -999.0
08-02-2022, 00:33:49,    168,    0.9,    8.1,   0.00,   0.00, 1021.4,   78.6, -999.0
08-02-2022, 00:33:59,    163,    0.5,    8.2,   0.00,   0.00, 1021.3,   78.6, -999.0
08-02-2022, 00:34:09,    217,    0.3,    8.2,   0.00,   0.00, 1021.3,   78.6, -999.0
08-02-2022, 00:34:19,    265,    0.5,    8.1,   0.00,   0.00, 1021.3,   78.5, -999.0
08-02-2022, 00:34:29,    181,    0.3,    8.2,   0.00,   0.00, 1021.4,   78.5, -999.0
08-02-2022, 00:34:38,    225,    1.6,    8.1,   0.00,   0.00, 1021.4,   78.5, -999.0
08-02-2022, 00:34:49,    231,    3.8,    8.1,   0.00,   0.00, 1021.4,   78.5, -999.0
08-02-2022, 00:34:59,    255,    3.6,    8.2,   0.00,   0.00, 1021.4,   78.5, -999.0
08-02-2022, 00:35:08,    221,    3.7,    8.2,   0.00,   0.00, 1021.4,   78.5, -999.0
08-02-2022, 00:35:18,    231,    4.0,    8.1,   0.00,   0.00, 1021.4,   78.4, -999.0
08-02-2022, 00:35:29,    250,    3.8,    8.1,   0.00,   0.00, 1021.4,   78.5, -999.0
08-02-2022, 00:35:38,    231,    2.8,    8.2,   0.00,   0.00, 1021.4,   78.3, -999.0
08-02-2022, 00:35:48,    196,    2.0,    8.2,   0.00,   0.00, 1021.4,   78.3, -999.0
08-02-2022, 00:35:58,    259,    2.7,    8.2,   0.00,   0.00, 1021.4,   78.4, -999.0
08-02-2022, 00:36:08,    242,    4.3,    8.1,   0.00,   0.00, 1021.4,   78.4, -999.0
08-02-2022, 00:36:18,    289,    2.5,    8.1,   0.00,   0.00, 1021.3,   78.4, -999.0
08-02-2022, 00:36:28,    242,    2.1,    8.1,   0.00,   0.00, 1021.4,   78.4, -999.0
08-02-2022, 00:36:38,    244,    2.3,    8.1,   0.00,   0.00, 1021.4,   78.4, -999.0
08-02-2022, 00:36:48,    213,    1.1,    8.2,   0.00,   0.00, 1021.3,   78.3, -999.0
08-02-2022, 00:36:58,    216,    1.0,    8.1,   0.00,   0.00, 1021.3,   78.2, -999.0
08-02-2022, 00:37:08,    234,    0.4,    8.0,   0.00,   0.00, 1021.4,   78.3, -999.0
08-02-2022, 00:37:18,    252,    0.5,    8.0,   0.00,   0.00, 1021.3,   78.1, -999.0
08-02-2022, 00:37:28,    257,    3.3,    8.1,   0.00,   0.00, 1021.4,   78.3, -999.0
08-02-2022, 00:37:38,    176,    2.1,    8.1,   0.00,   0.00, 1021.4,   78.3, -999.0
08-02-2022, 00:37:48,    185,    0.4,    8.0,   0.00,   0.00, 1021.3,   78.2, -999.0
08-02-2022, 00:37:58,    232,    0.2,    8.0,   0.00,   0.00, 1021.3,   78.2, -999.0
08-02-2022, 00:38:08,    214,    0.3,    8.1,   0.00,   0.00, 1021.3,   78.2, -999.0
08-02-2022, 00:38:17,    200,    0.2,    8.0,   0.00,   0.00, 1021.2,   78.1, -999.0
08-02-2022, 00:38:27,    234,    2.6,    8.0,   0.00,   0.00, 1021.3,   78.3, -999.0
08-02-2022, 00:38:38,    280,    1.8,    8.1,   0.00,   0.00, 1021.3,   78.3, -999.0
08-02-2022, 00:38:47,    206,    3.3,    8.1,   0.00,   0.00, 1021.3,   78.4, -999.0
08-02-2022, 00:38:57,    250,    1.9,    8.2,   0.00,   0.00, 1021.3,   78.4, -999.0
08-02-2022, 00:39:08,    264,    2.3,    8.1,   0.00,   0.00, 1021.3,   78.3, -999.0
08-02-2022, 00:39:17,    227,    1.4,    8.2,   0.00,   0.00, 1021.3,   78.3, -999.0
08-02-2022, 00:39:27,    229,    3.6,    8.0,   0.00,   0.00, 1021.3,   78.3, -999.0
08-02-2022, 00:39:37,    202,    2.1,    8.2,   0.00,   0.00, 1021.3,   78.4, -999.0
08-02-2022, 00:39:47,    216,    0.4,    8.1,   0.00,   0.00, 1021.2,   78.2, -999.0
08-02-2022, 00:39:57,    212,    0.2,    8.1,   0.00,   0.00, 1021.3,   78.2, -999.0
08-02-2022, 00:40:07,    278,    1.6,    8.2,   0.00,   0.00, 1021.3,   78.3, -999.0
08-02-2022, 00:40:17,    223,    2.9,    8.1,   0.00,   0.00, 1021.3,   78.3, -999.0
08-02-2022, 00:40:27,    268,    5.5,    8.2,   0.00,   0.00, 1021.3,   78.2, -999.0
08-02-2022, 00:40:37,    191,    1.7,    8.1,   0.00,   0.00, 1021.3,   78.3, -999.0
08-02-2022, 00:40:47,    225,    1.7,    8.2,   0.00,   0.00, 1021.3,   78.3, -999.0
08-02-2022, 00:40:56,    214,    1.9,    8.2,   0.00,   0.00, 1021.3,   78.3, -999.0
08-02-2022, 00:41:07,    253,    2.5,    8.1,   0.00,   0.00, 1021.3,   78.3, -999.0
08-02-2022, 00:41:17,    256,    4.0,    8.1,   0.00,   0.00, 1021.3,   78.3, -999.0
08-02-2022, 00:41:26,    229,    3.8,    8.2,   0.00,   0.00, 1021.3,   78.2, -999.0
08-02-2022, 00:41:37,    214,    1.2,    8.1,   0.00,   0.00, 1021.3,   78.2, -999.0
08-02-2022, 00:41:47,    224,    0.4,    8.1,   0.00,   0.00, 1021.3,   78.1, -999.0
08-02-2022, 00:41:56,    263,    1.4,    8.1,   0.00,   0.00, 1021.3,   78.2, -999.0
08-02-2022, 00:42:06,    242,    2.0,    8.0,   0.00,   0.00, 1021.3,   78.2, -999.0
08-02-2022, 00:42:17,    243,    0.3,    8.1,   0.00,   0.00, 1021.3,   78.2, -999.0
08-02-2022, 00:42:26,    260,    0.6,    8.1,   0.00,   0.00, 1021.3,   78.2, -999.0
08-02-2022, 00:42:36,    274,    1.2,    8.0,   0.00,   0.00, 1021.2,   78.0, -999.0
08-02-2022, 00:42:46,    189,    2.6,    8.1,   0.00,   0.00, 1021.3,   78.3, -999.0
08-02-2022, 00:42:56,    261,    2.4,    8.1,   0.00,   0.00, 1021.3,   78.2, -999.0
08-02-2022, 00:43:06,    207,    1.7,    8.1,   0.00,   0.00, 1021.3,   78.2, -999.0
08-02-2022, 00:43:16,    217,    0.8,    7.9,   0.00,   0.00, 1021.2,   78.0, -999.0
08-02-2022, 00:43:26,    263,    1.5,    8.1,   0.00,   0.00, 1021.3,   78.2, -999.0
08-02-2022, 00:43:36,    263,    0.0,    8.1,   0.00,   0.00, 1021.2,   77.9, -999.0
08-02-2022, 00:43:46,    260,    0.0,    8.0,   0.00,   0.00, 1021.2,   77.8, -999.0
08-02-2022, 00:43:56,    178,    0.0,    8.0,   0.00,   0.00, 1021.2,   77.9, -999.0
08-02-2022, 00:44:06,    204,    1.9,    8.1,   0.00,   0.00, 1021.3,   78.2, -999.0
08-02-2022, 00:44:16,    201,    2.8,    8.1,   0.00,   0.00, 1021.3,   78.1, -999.0
08-02-2022, 00:44:26,    200,    1.7,    8.1,   0.00,   0.00, 1021.3,   78.1, -999.0
08-02-2022, 00:44:35,    184,    5.1,    8.1,   0.00,   0.00, 1021.3,   78.2, -999.0
08-02-2022, 00:44:46,    198,    2.6,    8.0,   0.00,   0.00, 1021.3,   78.0, -999.0
08-02-2022, 00:44:56,    232,    0.9,    8.1,   0.00,   0.00, 1021.3,   78.0, -999.0
08-02-2022, 00:45:05,    272,    2.6,    8.2,   0.00,   0.00, 1021.3,   78.0, -999.0
08-02-2022, 00:45:16,    236,    1.0,    8.1,   0.00,   0.00, 1021.3,   78.0, -999.0
08-02-2022, 00:45:26,    235,    0.5,    8.0,   0.00,   0.00, 1021.3,   78.0, -999.0
08-02-2022, 00:45:35,    214,    0.0,    8.1,   0.00,   0.00, 1021.1,   77.7, -999.0
08-02-2022, 00:45:45,    215,    1.4,    8.1,   0.00,   0.00, 1021.2,   78.1, -999.0
08-02-2022, 00:45:55,    179,    2.7,    8.2,   0.00,   0.00, 1021.2,   78.1, -999.0
08-02-2022, 00:46:05,    263,    2.4,    8.2,   0.00,   0.00, 1021.3,   78.1, -999.0
08-02-2022, 00:46:15,    219,    1.3,    8.0,   0.00,   0.00, 1021.3,   77.9, -999.0
08-02-2022, 00:46:25,    201,    1.0,    8.1,   0.00,   0.00, 1021.3,   78.0, -999.0
08-02-2022, 00:46:35,    270,    0.5,    8.0,   0.00,   0.00, 1021.2,   77.9, -999.0
08-02-2022, 00:46:45,    245,    0.9,    8.2,   0.00,   0.00, 1021.3,   77.9, -999.0